When you browse on this site, cookies collect data to enhance your experience and personalize the content and advertising you see.
Visit our Privacy Policy to learn more. By continuing to use the site, you agree to this use of cookies and data.
  • In Hungary
  • List of Countries
  • For 7 days
  • Water Temperature
  • Satellite Maps
  • Weather Map
  • News
  • Weather Widgets
  • user-avatar
    Login

    Hourly Weather Rochester

    Today, 21 February, Thursday

    Time Temperature Precipitation Wind Pressure Humidity
    00:00 +1°C° 0.7 mm 5 mps 742 mmHg 93%
    01:00 +2°C° 0.7 mm 5 mps 741 mmHg 94%
    02:00 +2°C° 0 mm 6 mps 741 mmHg 93%
    03:00 +2°C° 0 mm 6 mps 741 mmHg 93%
    04:00 +2°C° 0 mm 7 mps 741 mmHg 93%
    05:00 0°C° 0 mm 7 mps 742 mmHg 89%
    06:00 -1°C° 0 mm 8 mps 743 mmHg 86%
    07:00 -2°C° 0 mm 8 mps 743 mmHg 83%
    08:00 -2°C° 0 mm 8 mps 744 mmHg 81%
    09:00 -2°C° 0 mm 8 mps 745 mmHg 79%
    10:00 -3°C° 0 mm 9 mps 745 mmHg 77%
    11:00 -1°C° 0 mm 9 mps 745 mmHg 76%
    12:00 -1°C° 0 mm 9 mps 746 mmHg 74%
    13:00 -1°C° 0 mm 9 mps 746 mmHg 73%
    14:00 -1°C° 0 mm 9 mps 746 mmHg 73%
    15:00 -1°C° 0 mm 9 mps 747 mmHg 73%
    16:00 -3°C° 0 mm 9 mps 747 mmHg 73%
    17:00 -2°C° 0 mm 8 mps 748 mmHg 75%
    18:00 -4°C° 0 mm 8 mps 748 mmHg 76%
    19:00 -4°C° 0 mm 8 mps 749 mmHg 78%
    20:00 -4°C° 0 mm 7 mps 750 mmHg 78%
    21:00 -4°C° 0 mm 7 mps 750 mmHg 77%
    22:00 -4°C° 0 mm 6 mps 751 mmHg 77%
    23:00 -4°C° 0 mm 6 mps 752 mmHg 78%

    Tomorrow, 22 February, Friday

    Time Temperature Precipitation Wind Pressure Humidity
    00:00 -4°C° 0 mm 6 mps 752 mmHg 78%
    01:00 -4°C° 0 mm 6 mps 753 mmHg 79%
    02:00 -4°C° 0 mm 6 mps 753 mmHg 80%
    03:00 -4°C° 0 mm 5 mps 754 mmHg 80%
    04:00 -4°C° 0 mm 5 mps 754 mmHg 81%
    05:00 -4°C° 0 mm 5 mps 755 mmHg 82%
    06:00 -4°C° 0 mm 5 mps 755 mmHg 83%
    07:00 -4°C° 0 mm 4 mps 756 mmHg 84%
    08:00 -3°C° 0 mm 4 mps 756 mmHg 81%
    09:00 -2°C° 0 mm 4 mps 757 mmHg 78%
    10:00 -2°C° 0 mm 4 mps 758 mmHg 75%
    11:00 -1°C° 0 mm 4 mps 758 mmHg 73%
    12:00 -1°C° 0 mm 4 mps 758 mmHg 72%
    13:00 -1°C° 0 mm 4 mps 758 mmHg 70%
    14:00 0°C° 0 mm 3 mps 758 mmHg 70%
    15:00 0°C° 0 mm 3 mps 758 mmHg 70%
    16:00 +1°C° 0 mm 2 mps 758 mmHg 70%
    17:00 -1°C° 0 mm 2 mps 758 mmHg 75%
    18:00 0°C° 0 mm 1 mps 758 mmHg 79%
    19:00 -1°C° 0 mm 1 mps 758 mmHg 84%
    20:00 -1°C° 0 mm 1 mps 759 mmHg 84%
    21:00 -2°C° 0 mm 0 mps 759 mmHg 85%
    22:00 -2°C° 0 mm 0 mps 759 mmHg 85%
    23:00 -1°C° 0 mm 1 mps 759 mmHg 85%

    Day after tomorrow, 23 February, Saturday

    Time Temperature Precipitation Wind Pressure Humidity
    00:00 -1°C° 0 mm 1 mps 759 mmHg 85%
    01:00 -1°C° 0 mm 1 mps 758 mmHg 85%
    02:00 -1°C° 0 mm 1 mps 758 mmHg 86%
    03:00 -3°C° 0 mm 2 mps 757 mmHg 86%
    04:00 -3°C° 0 mm 2 mps 757 mmHg 86%
    05:00 -3°C° 0 mm 2 mps 757 mmHg 85%
    06:00 -4°C° 0 mm 3 mps 757 mmHg 85%
    07:00 -4°C° 0 mm 3 mps 756 mmHg 84%
    08:00 -2°C° 0 mm 3 mps 756 mmHg 79%
    09:00 -1°C° 0 mm 4 mps 755 mmHg 74%
    10:00 0°C° 0 mm 4 mps 755 mmHg 69%
    11:00 +1°C° 0 mm 4 mps 754 mmHg 66%
    12:00 +4°C° 0 mm 4 mps 753 mmHg 63%
    13:00 +5°C° 0 mm 4 mps 752 mmHg 60%
    14:00 +5°C° 0 mm 4 mps 751 mmHg 64%
    15:00 +5°C° 0 mm 4 mps 750 mmHg 68%
    16:00 +5°C° 0 mm 4 mps 749 mmHg 72%
    17:00 +3°C° 0 mm 5 mps 749 mmHg 76%
    18:00 +2°C° 0 mm 5 mps 748 mmHg 79%
    19:00 +1°C° 0 mm 5 mps 747 mmHg 83%
    20:00 +2°C° 0.1 mm 5 mps 746 mmHg 83%
    21:00 +2°C° 0.1 mm 6 mps 745 mmHg 84%
    22:00 +3°C° 0.1 mm 6 mps 744 mmHg 84%
    23:00 +3°C° 0.3 mm 7 mps 743 mmHg 84%

    24 February, Sunday

    Time Temperature Precipitation Wind Pressure Humidity
    00:00 +4°C° 0.3 mm 7 mps 741 mmHg 84%
    01:00 +4°C° 0.3 mm 8 mps 740 mmHg 84%
    02:00 +4°C° 0.6 mm 8 mps 738 mmHg 84%
    03:00 +5°C° 0.6 mm 8 mps 736 mmHg 84%
    04:00 +5°C° 0.6 mm 8 mps 735 mmHg 84%
    05:00 +6°C° 0.6 mm 8 mps 733 mmHg 84%
    06:00 +7°C° 0.6 mm 9 mps 731 mmHg 83%
    07:00 +8°C° 0.6 mm 9 mps 729 mmHg 83%
    08:00 +10°C° 0.4 mm 9 mps 728 mmHg 78%
    09:00 +11°C° 0.4 mm 10 mps 727 mmHg 72%
    10:00 +12°C° 0.4 mm 10 mps 727 mmHg 67%
    11:00 +11°C° 0 mm 11 mps 727 mmHg 65%
    12:00 +8°C° 0 mm 12 mps 726 mmHg 63%
    13:00 +7°C° 0 mm 12 mps 726 mmHg 61%
    14:00 +5°C° 0 mm 13 mps 726 mmHg 61%
    15:00 +4°C° 0 mm 14 mps 726 mmHg 61%
    16:00 +2°C° 0 mm 15 mps 726 mmHg 60%
    17:00 +1°C° 0.1 mm 15 mps 726 mmHg 62%
    18:00 0°C° 0.1 mm 15 mps 727 mmHg 63%
    19:00 -1°C° 0.1 mm 15 mps 727 mmHg 64%
    20:00 -1°C° 0.1 mm 15 mps 727 mmHg 64%
    21:00 -3°C° 0.1 mm 16 mps 728 mmHg 63%
    22:00 -4°C° 0.1 mm 16 mps 728 mmHg 63%
    23:00 -5°C° 0 mm 16 mps 729 mmHg 64%

    25 February, Monday

    Time Temperature Precipitation Wind Pressure Humidity
    00:00 -5°C° 0 mm 15 mps 730 mmHg 64%
    01:00 -7°C° 0 mm 15 mps 732 mmHg 65%
    02:00 -8°C° 0.1 mm 15 mps 733 mmHg 65%
    03:00 -9°C° 0.1 mm 15 mps 735 mmHg 66%
    04:00 -10°C° 0.1 mm 15 mps 737 mmHg 66%
    05:00 -12°C° 0.1 mm 15 mps 739 mmHg 65%
    06:00 -13°C° 0.1 mm 14 mps 741 mmHg 64%
    07:00 -13°C° 0.1 mm 14 mps 743 mmHg 63%
    08:00 -13°C° 0 mm 14 mps 744 mmHg 62%
    09:00 -12°C° 0 mm 13 mps 746 mmHg 61%
    10:00 -12°C° 0 mm 13 mps 748 mmHg 60%
    11:00 -12°C° 0 mm 13 mps 749 mmHg 55%
    12:00 -12°C° 0 mm 12 mps 750 mmHg 50%
    13:00 -11°C° 0 mm 12 mps 751 mmHg 45%
    14:00 -11°C° 0 mm 11 mps 752 mmHg 44%
    15:00 -12°C° 0 mm 11 mps 753 mmHg 44%
    16:00 -12°C° 0 mm 10 mps 753 mmHg 43%
    17:00 -11°C° 0 mm 9 mps 754 mmHg 45%
    18:00 -12°C° 0 mm 9 mps 755 mmHg 47%
    19:00 -12°C° 0 mm 8 mps 756 mmHg 50%
    20:00 -12°C° 0 mm 7 mps 757 mmHg 52%
    21:00 -12°C° 0 mm 7 mps 757 mmHg 55%
    22:00 -12°C° 0 mm 6 mps 758 mmHg 57%
    23:00 -12°C° 0 mm 6 mps 758 mmHg 59%

    26 February, Tuesday

    Time Temperature Precipitation Wind Pressure Humidity
    00:00 -12°C° 0 mm 6 mps 758 mmHg 61%
    01:00 -12°C° 0 mm 5 mps 758 mmHg 62%
    02:00 -12°C° 0 mm 5 mps 758 mmHg 63%
    03:00 -11°C° 0 mm 4 mps 758 mmHg 64%
    04:00 -10°C° 0 mm 3 mps 759 mmHg 65%
    05:00 -9°C° 0 mm 2 mps 759 mmHg 66%
    06:00 -9°C° 0 mm 2 mps 759 mmHg 67%
    07:00 -9°C° 0 mm 1 mps 759 mmHg 68%
    08:00 -8°C° 0.1 mm 1 mps 759 mmHg 67%
    09:00 -7°C° 0.1 mm 1 mps 759 mmHg 67%
    10:00 -7°C° 0.1 mm 1 mps 759 mmHg 66%
    11:00 -6°C° 0 mm 2 mps 758 mmHg 63%
    12:00 -5°C° 0 mm 2 mps 757 mmHg 60%
    13:00 -4°C° 0 mm 2 mps 756 mmHg 57%
    14:00 -4°C° 0.1 mm 3 mps 755 mmHg 61%
    15:00 -2°C° 0.1 mm 3 mps 754 mmHg 65%
    16:00 -3°C° 0.1 mm 4 mps 753 mmHg 69%
    17:00 -3°C° 0.2 mm 4 mps 752 mmHg 74%
    18:00 -4°C° 0.2 mm 5 mps 751 mmHg 78%
    19:00 -5°C° 0.2 mm 5 mps 750 mmHg 83%
    20:00 -4°C° 0 mm 5 mps 749 mmHg 80%
    21:00 -2°C° 0 mm 4 mps 748 mmHg 77%
    22:00 -1°C° 0 mm 3 mps 747 mmHg 75%
    23:00 0°C° 0.1 mm 4 mps 746 mmHg 73%
    Show more